DECAYED

COSMOS 2251 DEB, 34400 (Decayed)

Orbit data source: Space-Track

COSMOS 2251 DEB, 34400 was space debris in LEO originally from a launch on Wed, 16 Jun 1993 UTC launched from the Plesetsk Missile And Space Complex (PKMTR). The debris from Iridium 33, an American commercial communications satellite, has been tracked extensively since its accidental collision with the defunct Russian satellite Cosmos 2251 in 2009. This event, occurring at high speed in low Earth orbit (LEO), generated thousands of pieces of space debris, significantly increasing the risk of further collisions. The Iridium 33 debris cloud has impacted space traffic management and orbital debris mitigation strategies, making it a subject of ongoing study in space situational awareness.

Loading next visibility...
Identifier
34400, 1993-036QR
Orbit
Decayed
Country
Flag of CISCIS
Related business
Manufacturer
Unknown
Mission
Decayed spacecraft
Bus & Motor
Unknown
Mass
Unknown
Launch date (UTC)
1993-06-16 (33 years ago)
Launch vehicle
Unknown
Launch site
Plesetsk Missile And Space Complex (PKMTR)
Object type
Payload
Rocket body
Debris
Shape & HBR
Unknown shape, 0.1 m
Radar Cross Section
Small (<0.1 m²)

Expand to show TLE details & history
Last TLE update: 2 weeks ago

TLE from 2 weeks ago
0 COSMOS 2251 DEB
1 34400U 93036QR  26021.19340091  .06892631  16699+0  77987-2 0  9995
2 34400  73.9370 293.8298 0011036 173.4328 186.7066 16.15314223905930
Epoch: 2026-01-21T04:38Z
TLE epoch observation values (Epoch: 2026-01-21T04:38:29.838Z)
Latitude
0.00003°
Longitude
103.64105°
Altitude
242.37 km
Speed
7.757 km/s
True Right ascension
19h 35m 19s
True Declination
0° 00' 00"
Sunlit
Object was in daylight at epoch
Visualization orbit readout
Latitude
Unknown
Longitude
Unknown
Altitude
Unknown
Speed
Unknown
Apparent Right ascension
Unknown
Apparent Declination
Unknown
Sunlit
N/A
Visualization observer readout
Local Sidereal Time
12:41:32
Azimuth
Unknown
Elevation
Unknown
Doppler factor
Unknown
Orbital elements
Apogee altitude
237.036 km
Perigee altitude
222.451 km
Semi-major axis
6,607.881 km
Eccentricity
0.0011
Inclination
73.937°
RAAN
293.8298°
Arg. of periapsis
173.4328°
True anomaly
186.69185°
Mean anomaly
186.7066°
Eccentric anomaly
186.69922°
Mean motion
4.04064 °/min
Orbital period
89.09 mins
BSTAR
0.0077987

Documentation

Showing up to 5 results
|